timestamp,wind_dir_avg,wind_spd_max_dir,wind_spd_avg,wind_spd_gust,battery_voltage,lat,long
2018-10-13 00:00:00+00:00,109.0,116.0,5.7,10.31,,47.59359,-54.27349
2018-10-13 00:10:00+00:00,115.0,103.0,5.96,10.22,,47.59359,-54.27349
2018-10-13 00:20:00+00:00,112.0,105.0,4.5,9.15,,47.59359,-54.27349
2018-10-13 00:30:00+00:00,106.0,111.0,6.48,9.88,,47.59359,-54.27349
2018-10-13 00:40:00+00:00,106.0,104.0,6.77,10.66,,47.59359,-54.27349
2018-10-13 00:50:00+00:00,112.0,106.0,6.5,11.0,,47.59359,-54.27349
2018-10-13 01:00:00+00:00,106.0,90.0,5.45,9.73,,47.59359,-54.27349
2018-10-13 01:10:00+00:00,108.0,126.0,4.87,9.01,,47.59359,-54.27349
2018-10-13 01:20:00+00:00,110.0,127.0,6.65,10.41,,47.59359,-54.27349
2018-10-13 01:30:00+00:00,114.0,121.0,6.26,10.83,,47.59359,-54.27349
2018-10-13 01:40:00+00:00,97.0,101.0,6.18,10.0,,47.59359,-54.27349
2018-10-13 01:50:00+00:00,96.0,84.0,5.12,8.33,,47.59359,-54.27349
2018-10-13 02:00:00+00:00,119.0,131.0,5.76,9.39,,47.59359,-54.27349
2018-10-13 02:10:00+00:00,98.0,87.0,4.4,7.15,,47.59359,-54.27349
2018-10-13 02:20:00+00:00,106.0,117.0,6.16,10.79,,47.59359,-54.27349
2018-10-13 02:30:00+00:00,97.0,91.0,4.87,7.54,,47.59359,-54.27349
2018-10-13 02:40:00+00:00,106.0,121.0,4.97,7.08,,47.59359,-54.27349
2018-10-13 02:50:00+00:00,112.0,115.0,5.45,8.85,,47.59359,-54.27349
2018-10-13 03:00:00+00:00,99.0,101.0,6.16,9.97,,47.59359,-54.27349
2018-10-13 03:10:00+00:00,102.0,97.0,6.02,9.31,,47.59359,-54.27349
2018-10-13 03:20:00+00:00,106.0,85.0,6.57,10.77,,47.59359,-54.27349
2018-10-13 03:30:00+00:00,108.0,139.0,4.98,7.61,,47.59359,-54.27349
2018-10-13 03:40:00+00:00,98.0,100.0,5.27,7.12,,47.59359,-54.27349
2018-10-13 03:50:00+00:00,94.0,106.0,6.68,9.52,,47.59359,-54.27349
2018-10-13 04:00:00+00:00,87.0,78.0,7.49,10.91,,47.59359,-54.27349
2018-10-13 04:10:00+00:00,83.0,87.0,9.01,10.58,,47.59359,-54.27349
2018-10-13 04:20:00+00:00,87.0,85.0,6.5,8.24,,47.59359,-54.27349
2018-10-13 04:30:00+00:00,87.0,79.0,7.03,9.0,,47.59359,-54.27349
2018-10-13 04:40:00+00:00,86.0,86.0,5.84,8.38,,47.59359,-54.27349
2018-10-13 04:50:00+00:00,87.0,76.0,7.16,9.42,,47.59359,-54.27349
2018-10-13 05:00:00+00:00,86.0,82.0,8.18,10.34,,47.59359,-54.27349
2018-10-13 05:10:00+00:00,88.0,79.0,8.67,11.08,,47.59359,-54.27349
2018-10-13 05:20:00+00:00,82.0,82.0,7.35,8.76,,47.59359,-54.27349
2018-10-13 05:30:00+00:00,73.0,77.0,8.9,9.96,,47.59359,-54.27349
2018-10-13 05:40:00+00:00,80.0,86.0,8.92,10.33,,47.59359,-54.27349
2018-10-13 05:50:00+00:00,69.0,75.0,9.83,11.23,,47.59359,-54.27349
2018-10-13 06:00:00+00:00,70.0,70.0,10.13,11.32,,47.59359,-54.27349
2018-10-13 06:10:00+00:00,64.0,63.0,11.41,13.03,,47.59359,-54.27349
2018-10-13 06:20:00+00:00,66.0,70.0,10.2,11.74,,47.59359,-54.27349
2018-10-13 06:30:00+00:00,57.0,55.0,11.6,13.07,,47.59359,-54.27349
2018-10-13 06:40:00+00:00,54.0,51.0,13.0,14.01,,47.59359,-54.27349
2018-10-13 06:50:00+00:00,56.0,52.0,12.65,13.56,,47.59359,-54.27349
2018-10-13 07:00:00+00:00,57.0,57.0,11.4,13.23,,47.59359,-54.27349
2018-10-13 07:10:00+00:00,61.0,67.0,12.66,14.55,,47.59359,-54.27349
2018-10-13 07:20:00+00:00,61.0,56.0,12.22,14.14,,47.59359,-54.27349
2018-10-13 07:30:00+00:00,77.0,81.0,14.01,16.72,,47.59359,-54.27349
2018-10-13 07:40:00+00:00,83.0,81.0,18.26,23.18,,47.59359,-54.27349
2018-10-13 07:50:00+00:00,64.0,58.0,12.89,15.1,,47.59359,-54.27349
2018-10-13 08:00:00+00:00,68.0,69.0,10.65,12.87,,47.59359,-54.27349
2018-10-13 08:10:00+00:00,43.0,40.0,12.98,14.85,,47.59359,-54.27349
2018-10-13 08:20:00+00:00,49.0,39.0,13.37,17.44,,47.59359,-54.27349
2018-10-13 08:30:00+00:00,69.0,72.0,13.37,16.57,,47.59359,-54.27349
2018-10-13 08:40:00+00:00,67.0,72.0,12.01,14.76,,47.59359,-54.27349
2018-10-13 08:50:00+00:00,53.0,53.0,13.38,15.72,,47.59359,-54.27349
2018-10-13 09:00:00+00:00,46.0,51.0,13.49,15.25,,47.59359,-54.27349
2018-10-13 09:10:00+00:00,52.0,52.0,14.46,17.6,,47.59359,-54.27349
2018-10-13 09:20:00+00:00,52.0,46.0,13.41,15.83,,47.59359,-54.27349
2018-10-13 09:30:00+00:00,51.0,51.0,13.91,16.32,,47.59359,-54.27349
2018-10-13 09:40:00+00:00,50.0,42.0,13.32,15.34,,47.59359,-54.27349
2018-10-13 09:50:00+00:00,41.0,39.0,11.61,13.14,,47.59359,-54.27349
2018-10-13 10:00:00+00:00,45.0,52.0,11.27,12.67,,47.59359,-54.27349
2018-10-13 10:10:00+00:00,47.0,50.0,12.29,13.86,,47.59359,-54.27349
2018-10-13 10:20:00+00:00,40.0,38.0,11.72,12.98,,47.59359,-54.27349
2018-10-13 10:30:00+00:00,44.0,50.0,12.32,14.42,,47.59359,-54.27349
2018-10-13 10:40:00+00:00,40.0,44.0,11.11,12.16,,47.59359,-54.27349
2018-10-13 10:50:00+00:00,35.0,33.0,9.68,11.13,,47.59359,-54.27349
2018-10-13 11:00:00+00:00,41.0,40.0,9.23,10.1,,47.59359,-54.27349
2018-10-13 11:10:00+00:00,39.0,42.0,9.85,11.38,,47.59359,-54.27349
2018-10-13 11:20:00+00:00,46.0,50.0,9.42,11.63,,47.59359,-54.27349
2018-10-13 11:30:00+00:00,44.0,41.0,10.03,10.95,,47.59359,-54.27349
2018-10-13 11:40:00+00:00,40.0,41.0,9.34,10.68,,47.59359,-54.27349
2018-10-13 11:50:00+00:00,49.0,52.0,8.71,9.65,,47.59359,-54.27349
2018-10-13 12:00:00+00:00,49.0,51.0,8.61,9.78,,47.59359,-54.27349
2018-10-13 12:10:00+00:00,48.0,43.0,7.5,8.47,,47.59359,-54.27349
2018-10-13 12:20:00+00:00,36.0,36.0,8.11,9.07,,47.59359,-54.27349
2018-10-13 12:30:00+00:00,33.0,35.0,7.49,8.25,,47.59359,-54.27349
2018-10-13 12:40:00+00:00,36.0,37.0,7.37,9.71,,47.59359,-54.27349
2018-10-13 12:50:00+00:00,51.0,51.0,7.9,8.93,,47.59359,-54.27349
2018-10-13 13:00:00+00:00,42.0,39.0,8.41,9.4,,47.59359,-54.27349
2018-10-13 13:10:00+00:00,46.0,43.0,8.14,9.08,,47.59359,-54.27349
2018-10-13 13:20:00+00:00,47.0,48.0,7.94,9.82,,47.59359,-54.27349
2018-10-13 13:30:00+00:00,48.0,52.0,8.84,9.76,,47.59359,-54.27349
2018-10-13 13:40:00+00:00,52.0,53.0,8.93,9.71,,47.59359,-54.27349
2018-10-13 13:50:00+00:00,52.0,45.0,7.9,9.28,,47.59359,-54.27349
2018-10-13 14:00:00+00:00,56.0,61.0,6.72,7.64,,47.59359,-54.27349
2018-10-13 14:10:00+00:00,51.0,51.0,6.75,7.99,,47.59359,-54.27349
2018-10-13 14:20:00+00:00,53.0,48.0,4.75,5.96,,47.59359,-54.27349
2018-10-13 14:30:00+00:00,46.0,51.0,5.23,6.19,,47.59359,-54.27349
2018-10-13 14:40:00+00:00,74.0,78.0,5.0,5.89,,47.59359,-54.27349
2018-10-13 14:50:00+00:00,73.0,73.0,4.41,5.38,,47.59359,-54.27349
2018-10-13 15:00:00+00:00,90.0,95.0,2.78,3.31,,47.59359,-54.27349
2018-10-13 15:10:00+00:00,42.0,37.0,2.73,3.04,,47.59359,-54.27349
2018-10-13 15:20:00+00:00,63.0,65.0,3.58,4.25,,47.59359,-54.27349
2018-10-13 15:30:00+00:00,66.0,72.0,3.13,3.66,,47.59359,-54.27349
2018-10-13 15:40:00+00:00,53.0,56.0,3.81,4.31,,47.59359,-54.27349
2018-10-13 15:50:00+00:00,47.0,50.0,2.4,2.78,,47.59359,-54.27349
2018-10-13 16:00:00+00:00,63.0,70.0,2.37,2.81,,47.59359,-54.27349
2018-10-13 16:10:00+00:00,79.0,78.0,3.66,4.05,,47.59359,-54.27349
2018-10-13 16:20:00+00:00,79.0,72.0,2.16,3.62,,47.59359,-54.27349
2018-10-13 16:30:00+00:00,89.0,88.0,1.79,2.49,,47.59359,-54.27349
2018-10-13 16:40:00+00:00,95.0,86.0,2.04,2.87,,47.59359,-54.27349
2018-10-13 16:50:00+00:00,103.0,99.0,1.92,2.97,,47.59359,-54.27349
2018-10-13 17:00:00+00:00,128.0,137.0,2.04,2.52,,47.59359,-54.27349
2018-10-13 17:10:00+00:00,84.0,80.0,2.84,3.67,,47.59359,-54.27349
2018-10-13 17:20:00+00:00,115.0,134.0,2.45,3.62,,47.59359,-54.27349
2018-10-13 17:30:00+00:00,129.0,140.0,2.44,3.66,,47.59359,-54.27349
2018-10-13 17:40:00+00:00,143.0,140.0,2.06,2.56,,47.59359,-54.27349
2018-10-13 17:50:00+00:00,149.0,148.0,2.05,2.33,,47.59359,-54.27349
2018-10-13 18:00:00+00:00,199.0,198.0,2.59,2.9,,47.59359,-54.27349
2018-10-13 18:10:00+00:00,207.0,210.0,2.06,2.34,,47.59359,-54.27349
2018-10-13 18:20:00+00:00,204.0,204.0,2.35,2.62,,47.59359,-54.27349
2018-10-13 18:30:00+00:00,193.0,184.0,2.21,2.81,,47.59359,-54.27349
2018-10-13 18:40:00+00:00,213.0,219.0,2.39,2.83,,47.59359,-54.27349
2018-10-13 18:50:00+00:00,190.0,198.0,2.01,2.37,,47.59359,-54.27349
2018-10-13 19:00:00+00:00,233.0,238.0,2.07,2.42,,47.59359,-54.27349
2018-10-13 19:10:00+00:00,267.0,266.0,1.97,2.23,,47.59359,-54.27349
2018-10-13 19:20:00+00:00,239.0,239.0,2.83,3.19,,47.59359,-54.27349
2018-10-13 19:30:00+00:00,238.0,233.0,2.3,2.76,,47.59359,-54.27349
2018-10-13 19:40:00+00:00,243.0,242.0,2.5,2.79,,47.59359,-54.27349
2018-10-13 19:50:00+00:00,250.0,250.0,2.79,3.1,,47.59359,-54.27349
2018-10-13 20:00:00+00:00,248.0,255.0,1.75,2.01,,47.59359,-54.27349
2018-10-13 20:10:00+00:00,245.0,245.0,1.76,1.99,,47.59359,-54.27349
2018-10-13 20:20:00+00:00,244.0,245.0,1.51,1.9,,47.59359,-54.27349
2018-10-13 20:30:00+00:00,227.0,210.0,1.63,1.98,,47.59359,-54.27349
2018-10-13 20:40:00+00:00,199.0,192.0,1.45,2.05,,47.59359,-54.27349
2018-10-13 20:50:00+00:00,215.0,218.0,2.93,3.38,,47.59359,-54.27349
2018-10-13 21:00:00+00:00,201.0,207.0,2.15,2.46,,47.59359,-54.27349
2018-10-13 21:10:00+00:00,175.0,176.0,2.08,2.32,,47.59359,-54.27349
2018-10-13 21:20:00+00:00,162.0,167.0,2.23,2.46,,47.59359,-54.27349
2018-10-13 21:30:00+00:00,176.0,179.0,2.65,2.96,,47.59359,-54.27349
2018-10-13 21:40:00+00:00,167.0,169.0,2.36,2.59,,47.59359,-54.27349
2018-10-13 21:50:00+00:00,178.0,178.0,2.0,2.26,,47.59359,-54.27349
2018-10-13 22:00:00+00:00,178.0,181.0,2.62,3.11,,47.59359,-54.27349
2018-10-13 22:10:00+00:00,183.0,178.0,3.0,3.45,,47.59359,-54.27349
2018-10-13 22:20:00+00:00,161.0,163.0,2.22,2.53,,47.59359,-54.27349
2018-10-13 22:30:00+00:00,180.0,177.0,2.78,2.99,,47.59359,-54.27349
2018-10-13 22:40:00+00:00,197.0,200.0,3.5,3.74,,47.59359,-54.27349
2018-10-13 22:50:00+00:00,202.0,206.0,3.15,3.57,,47.59359,-54.27349
2018-10-13 23:00:00+00:00,198.0,197.0,2.39,3.0,,47.59359,-54.27349
2018-10-13 23:10:00+00:00,196.0,197.0,3.45,3.76,,47.59359,-54.27349
2018-10-13 23:20:00+00:00,186.0,197.0,2.88,3.33,,47.59359,-54.27349
2018-10-13 23:30:00+00:00,183.0,187.0,3.37,3.73,,47.59359,-54.27349
2018-10-13 23:40:00+00:00,192.0,193.0,3.34,3.82,,47.59359,-54.27349
2018-10-13 23:50:00+00:00,211.0,213.0,4.97,5.38,,47.59359,-54.27349
